Regional Weather Roundup
Issued by NWS

Home | Current Version | Previous Version | Graphics & Text | Print | Product List | Glossary On
Versions: 1 2 3 4 5 6 7 8 9 10 11 12 13 14 15 16 17 18 19 20 21 22 23 24 25 26 27 28 29 30 31 32 33 34 35 36 37 38 39 40 41 42 43 44 45 46 47 48 49 50
000
ASUS43 KOAX 010702
RWRNE

WEATHER ROUNDUP FOR NEBRASKA
NATIONAL WEATHER SERVICE OMAHA NE
200 AM CDT MON SEP 01 2014

NOTES: SATELLITE DATA IS BEING USED TO AUGMENT CLOUD COVER ABOVE
       12000 FEET.
       "FAIR" INDICATES FEW OR NO CLOUDS BELOW 12,000 FEET WITH NO
       SIGNIFICANT WEATHER AND/OR OBSTRUCTIONS TO VISIBILITY.

  * THESE STATIONS DO NOT REPORT WEATHER SUCH AS RAIN...SNOW OR FOG.

NEZ001>004-019>022-054>056-010800-
NEBRASKA PANHANDLE

CITY           SKY/WX    TMP DP  RH WIND       PRES   REMARKS
SCOTTSBLUFF    CLEAR     50  48  93 NW7       29.97R
ALLIANCE       CLEAR     48  46  93 CALM      29.94S
CHADRON        CLEAR     52  50  93 W3        29.94R
KIMBALL        PTCLDY    51  46  82 W8        30.01R
SIDNEY         CLEAR     51  45  79 W10       29.99R
$$

NEZ057>060-069>072-079>082-010800-
SOUTHWEST NEBRASKA

CITY           SKY/WX    TMP DP  RH WIND       PRES   REMARKS
NORTH PLATTE   CLEAR     54  51  90 W6        29.89R
IMPERIAL       PTCLDY    56  50  80 NW5       29.93R
LEXINGTON      CLEAR     57  55  92 CALM      29.84R
MCCOOK         PTCLDY    60  54  80 NW6       29.88R
OGALLALA       CLEAR     53  50  90 NW7       29.93R
$$

NEZ005>010-023>029-035>040-094-010800-
NORTH CENTRAL NEBRASKA

CITY           SKY/WX    TMP DP  RH WIND       PRES   REMARKS
VALENTINE      CLEAR     55  53  93 NW8       29.84R
AINSWORTH      CLEAR     55  54  97 NW9       29.83S
BROKEN BOW     CLEAR     58  55  90 NW9       29.83R
O`NEILL        PTCLDY    62  61  97 NW9       29.77S
ORD            CLEAR     60  56  86 NW10      29.79R
THEDFORD       CLEAR     54  53  95 W9        29.87R
$$

NEZ041-046>049-061>064-073>077-083>087-010800-
SOUTH CENTRAL NEBRASKA

CITY           SKY/WX    TMP DP  RH WIND       PRES   REMARKS
GRAND ISLAND   CLEAR     64  58  80 W13       29.79R
AURORA         PTCLDY    61  61 100 W8        29.79R
HASTINGS       PTCLDY    63  58  83 W7        29.80R
HEBRON         CLOUDY    67  63  88 CALM      29.77R
HOLDREGE       PTCLDY    60  57  88 CALM      29.83R
KEARNEY *      CLEAR     63  55  77 CALM      29.82R
$$

NEZ011>018-030>034-042>045-010800-
NORTHEAST NEBRASKA

CITY           SKY/WX    TMP DP  RH WIND       PRES   REMARKS
NORFOLK        CLEAR     62  60  93 W9        29.73R
ALBION         CLEAR     62  57  85 W6        29.77R
BLAIR          CLOUDY    68  66  93 S10       29.71S
FREMONT        CLOUDY    66  64  94 S5        29.71S
TEKAMAH        CLOUDY    64  63  96 SE6       29.70S
WAYNE          PTCLDY    61  60  96 NW5       29.71R
$$

NEZ050>053-065>068-078-088>093-010800-
SOUTHEAST NEBRASKA

CITY           SKY/WX    TMP DP  RH WIND       PRES   REMARKS
LINCOLN        CLOUDY    67  65  93 S5        29.74R
OMAHA EPPLEY   CLOUDY    70  64  81 S18       29.71R
BEATRICE       CLOUDY    68  65  92 S13       29.77R
FALLS CITY     LGT RAIN  68  65  90 S8        29.79R
NEBRASKA CITY  CLOUDY    66  66 100 S16       29.74F
PLATTSMOUTH    CLOUDY    67  64  90 S17G23    29.72S
$$

NEZ044-045-051>053-067-010800-
OMAHA AREA

CITY           SKY/WX    TMP DP  RH WIND       PRES   REMARKS
OMAHA EPPLEY   CLOUDY    70  64  81 S18       29.71R
BLAIR          CLOUDY    68  66  93 S10       29.71S
FREMONT        CLOUDY    66  64  94 S5        29.71S
MILLARD        CLOUDY    69  66  88 S6        29.73R
OFFUTT AFB     CLOUDY    68  68  99 S12       29.73R
PLATTSMOUTH    CLOUDY    67  64  90 S17G23    29.72S
WAHOO          FAIR      65  62  92 S5        29.71S
$$



USA.gov is the U.S. government's official web portal to all federal, state and local government web resources and services.